TimeCST,TemperatureF,Dew PointF,Humidity,Sea Level PressureIn,VisibilityMPH,Wind Direction,Wind SpeedMPH,Gust SpeedMPH,PrecipitationIn,Events,Conditions,WindDirDegrees,DateUTC
12:53 AM,8.1,-0.9,67,30.75,10.0,WSW,8.1,-,N/A,,Clear,250,2013-11-22 06:53:00
1:53 AM,5.0,-2.0,73,30.74,10.0,WSW,8.1,-,N/A,,Clear,240,2013-11-22 07:53:00
2:53 AM,6.1,-0.9,73,30.73,10.0,SW,8.1,-,N/A,,Clear,230,2013-11-22 08:53:00
3:53 AM,7.0,-0.9,70,30.69,10.0,SW,8.1,-,N/A,,Clear,220,2013-11-22 09:53:00
4:53 AM,3.9,-2.9,73,30.71,10.0,SW,9.2,-,N/A,,Clear,230,2013-11-22 10:53:00
5:53 AM,8.1,-2.0,64,30.70,10.0,SW,6.9,-,N/A,,Clear,220,2013-11-22 11:53:00
6:53 AM,10.9,-0.0,61,30.69,10.0,SSW,10.4,-,N/A,,Clear,210,2013-11-22 12:53:00
7:53 AM,9.0,-0.9,64,30.67,10.0,SW,9.2,-,N/A,,Clear,220,2013-11-22 13:53:00
8:53 AM,10.9,-0.0,61,30.68,10.0,SW,8.1,-,N/A,,Clear,230,2013-11-22 14:53:00
9:53 AM,15.1,1.0,54,30.68,10.0,SW,11.5,-,N/A,,Clear,220,2013-11-22 15:53:00
10:53 AM,19.9,5.0,52,30.67,10.0,SSW,11.5,-,N/A,,Clear,210,2013-11-22 16:53:00
11:53 AM,27.0,8.1,45,30.63,10.0,SW,10.4,-,N/A,,Clear,230,2013-11-22 17:53:00
12:53 PM,32.0,10.0,40,30.61,10.0,SW,11.5,-,N/A,,Clear,230,2013-11-22 18:53:00
1:53 PM,35.1,14.0,42,30.60,10.0,North,5.8,-,N/A,,Clear,350,2013-11-22 19:53:00
2:53 PM,35.1,14.0,42,30.61,10.0,WNW,10.4,-,N/A,,Clear,300,2013-11-22 20:53:00
3:53 PM,36.0,10.9,36,30.63,10.0,NNW,12.7,-,N/A,,Clear,340,2013-11-22 21:53:00
4:53 PM,28.9,12.9,51,30.65,10.0,North,4.6,-,N/A,,Clear,10,2013-11-22 22:53:00
5:53 PM,25.0,12.0,58,30.68,10.0,NNW,8.1,-,N/A,,Clear,340,2013-11-22 23:53:00
6:53 PM,21.9,12.0,66,30.70,10.0,NNE,8.1,-,N/A,,Clear,20,2013-11-23 00:53:00
7:53 PM,19.9,10.9,68,30.74,10.0,North,9.2,-,N/A,,Clear,10,2013-11-23 01:53:00
8:53 PM,18.0,10.0,71,30.76,10.0,North,8.1,-,N/A,,Clear,10,2013-11-23 02:53:00
9:53 PM,18.0,10.9,74,30.77,10.0,NNE,9.2,-,N/A,,Mostly Cloudy,20,2013-11-23 03:53:00
10:53 PM,19.9,14.0,78,30.78,10.0,NNE,8.1,-,N/A,,Overcast,30,2013-11-23 04:53:00
11:53 PM,18.0,12.9,81,30.79,10.0,NNE,5.8,-,N/A,,Overcast,30,2013-11-23 05:53:00